FW6402 Weather Reports


time (UTC)temp
C
wind
direction
speed
KPH
gust
KPH
rain 1hr
cm
rain 24hr
cm
rain mn
cm
humidity
%
barometer
mb
20260505224342 17 264 0.0 4.8 0.00 0.00 0.00 71 1017.7
20260505223839 18 23 1.6 6.4 0.00 0.00 0.00 71 1017.8
20260505223347 18 44 0.0 6.4 0.00 0.00 0.00 70 1017.8
20260505222845 18 264 0.0 3.2 0.00 0.00 0.00 70 1017.9
20260505222341 18 257 0.0 1.6 0.00 0.00 0.00 70 1017.9
20260505221900 18 215 0.0 3.2 0.00 0.00 0.00 70 1017.9
20260505221335 18 252 1.6 3.2 0.00 0.00 0.00 68 1017.9
20260505220832 18 314 0.0 4.8 0.00 0.00 0.00 71 1017.9
20260505220418 17 260 0.0 4.8 0.00 0.00 0.00 70 1018.0
20260505215853 18 151 0.0 6.4 0.00 0.00 0.00 69 1018.0
20260505215350 17 229 1.6 6.4 0.00 0.00 0.00 70 1018.1
20260505214847 18 247 0.0 1.6 0.00 0.00 0.00 71 1018.1
20260505214345 18 63 0.0 3.2 0.00 0.00 0.00 69 1018.1
20260505213843 17 265 1.6 3.2 0.00 0.00 0.00 70 1018.1
20260505213340 18 274 0.0 1.6 0.00 0.00 0.00 69 1018.1
20260505212838 18 272 0.0 1.6 0.00 0.00 0.00 72 1018.1
20260505212348 17 248 0.0 6.4 0.00 0.00 0.00 71 1018.3
20260505211914 18 30 1.6 6.4 0.00 0.00 0.00 70 1018.2
20260505211351 17 353 0.0 1.6 0.00 0.00 0.00 72 1018.3
20260505210848 17 270 0.0 4.8 0.00 0.00 0.00 73 1018.2
20260505210407 17 266 0.0 4.8 0.00 0.00 0.00 73 1018.3
20260505205852 17 235 1.6 6.4 0.00 0.00 0.00 72 1018.3
20260505205348 17 260 1.6 4.8 0.00 0.00 0.00 72 1018.3
20260505204846 17 256 1.6 4.8 0.00 0.00 0.00 72 1018.3
20260505204343 17 237 0.0 4.8 0.00 0.00 0.00 73 1018.3
20260505203840 17 292 1.6 4.8 0.00 0.00 0.00 73 1018.3
20260505203335 17 244 1.6 6.4 0.00 0.00 0.00 72 1018.4
20260505202855 17 269 1.6 6.4 0.00 0.00 0.00 70 1018.4
20260505202351 18 288 1.6 3.2 0.00 0.00 0.00 70 1018.3
20260505201829 17 120 0.0 6.4 0.00 0.00 0.00 71 1018.5
20260505201347 17 165 1.6 6.4 0.00 0.00 0.00 71 1018.5
20260505200852 17 248 1.6 6.4 0.00 0.00 0.00 72 1018.5
20260505200409 17 78 3.2 6.4 0.00 0.00 0.00 71 1018.5
20260505195843 17 284 0.0 4.8 0.00 0.00 0.00 74 1018.5
20260505195341 17 250 1.6 4.8 0.00 0.00 0.00 72 1018.5
20260505194839 17 238 3.2 4.8 0.00 0.00 0.00 73 1018.5
20260505194334 17 190 0.0 4.8 0.00 0.00 0.00 75 1018.5
20260505193853 16 245 3.2 4.8 0.00 0.00 0.00 73 1018.6
20260505193349 17 134 1.6 4.8 0.00 0.00 0.00 74 1018.6
20260505192846 16 86 0.0 4.8 0.00 0.00 0.00 75 1018.6
20260505192345 16 161 1.6 3.2 0.00 0.00 0.00 77 1018.6
20260505191843 16 68 1.6 4.8 0.00 0.00 0.00 76 1018.6
20260505191341 15 284 3.2 6.4 0.00 0.00 0.00 77 1018.6
20260505190841 16 237 3.2 6.4 0.00 0.00 0.00 75 1018.6
20260505190359 16 96 0.0 1.6 0.00 0.00 0.00 77 1018.6
20260505185853 15 122 0.0 4.8 0.00 0.00 0.00 78 1018.6
20260505185331 15 56 3.2 4.8 0.00 0.00 0.00 79 1018.6
20260505184848 15 133 1.6 3.2 0.00 0.00 0.00 79 1018.6
20260505184343 15 51 0.0 3.2 0.00 0.00 0.00 80 1018.7
20260505183849 15 263 0.0 4.8 0.00 0.00 0.00 81 1018.7
20260505183348 14 52 1.6 4.8 0.00 0.00 0.00 81 1018.7
20260505182845 14 52 1.6 3.2 0.00 0.00 0.00 81 1018.8
20260505182342 14 75 0.0 3.2 0.00 0.00 0.00 82 1018.7
20260505181839 14 53 0.0 3.2 0.00 0.00 0.00 82 1018.6
20260505181357 14 74 0.0 3.2 0.00 0.00 0.00 83 1018.6
20260505180850 14 101 1.6 3.2 0.00 0.00 0.00 83 1018.6
20260505180347 13 40 0.0 3.2 0.00 0.00 0.00 83 1018.6
20260505175841 13 259 0.0 4.8 0.00 0.00 0.00 83 1018.6
20260505174914 14 258 0.0 3.2 0.00 0.00 0.00 83 1018.6
20260505174409 13 164 0.0 3.2 0.00 0.00 0.00 83 1018.6
20260505173846 13 250 0.0 3.2 0.00 0.00 0.00 83 1018.6
20260505173344 13 243 0.0 3.2 0.00 0.00 0.00 83 1018.5
20260505172841 13 226 0.0 3.2 0.00 0.00 0.00 83 1018.6
20260505172341 13 271 0.0 3.2 0.00 0.00 0.00 83 1018.5
20260505171838 13 218 0.0 3.2 0.00 0.00 0.00 84 1018.4
20260505171331 13 250 1.6 3.2 0.00 0.00 0.00 83 1018.4
20260505170846 13 226 0.0 3.2 0.00 0.00 0.00 84 1018.5
20260505170344 13 214 1.6 4.8 0.00 0.00 0.00 83 1018.4
20260505165841 13 275 1.6 4.8 0.00 0.00 0.00 83 1018.3
20260505165348 13 197 0.0 3.2 0.00 0.00 0.00 83 1018.4
20260505164845 13 221 0.0 3.2 0.00 0.00 0.00 84 1018.4
20260505164342 13 283 1.6 4.8 0.00 0.00 0.00 84 1018.3
20260505163900 13 231 0.0 4.8 0.00 0.00 0.00 84 1018.3
20260505163406 13 182 0.0 3.2 0.00 0.00 0.00 84 1018.3
20260505162842 13 94 0.0 3.2 0.00 0.00 0.00 84 1018.3
20260505162356 13 159 1.6 4.8 0.00 0.00 0.00 84 1018.3
20260505161901 13 101 1.6 4.8 0.00 0.00 0.00 84 1018.2
20260505161329 13 155 0.0 1.6 0.00 0.00 0.00 86 1018.3
20260505160854 13 86 0.0 1.6 0.00 0.00 0.00 85 1018.2
20260505160331 13 229 0.0 1.6 0.00 0.00 0.00 86 1018.2
20260505153345 12 143 0.0 3.2 0.00 0.00 0.00 88 1018.3
20260505152842 12 271 1.6 3.2 0.00 0.00 0.00 87 1018.3
20260505152339 12 118 0.0 3.2 0.00 0.00 0.00 88 1018.2
20260505151831 12 156 0.0 3.2 0.00 0.00 0.00 88 1018.2
20260505151357 12 118 0.0 1.6 0.00 0.00 0.00 88 1018.2
20260505150832 12 268 0.0 3.2 0.00 0.00 0.00 88 1018.2
20260505150349 12 229 1.6 3.2 0.00 0.00 0.00 87 1018.2
20260505140346 12 245 0.0 0.0 0.00 0.00 0.00 86 1017.4
20260505124829 12 230 0.0 1.6 0.00 0.00 0.00 87 1017.2
20260505124346 12 230 0.0 1.6 0.00 0.00 0.00 87 1017.1
20260505123843 12 250 0.0 1.6 0.00 0.00 0.00 86 1017.1
20260505123337 12 236 0.0 0.0 0.00 0.00 0.00 86 1017.2
20260505122842 12 239 0.0 1.6 0.00 0.00 0.00 87 1017.2
20260505122339 12 239 0.0 1.6 0.00 0.00 0.00 86 1017.1
20260505121836 12 240 0.0 1.6 0.00 0.00 0.00 87 1017.1
20260505121356 12 239 0.0 1.6 0.00 0.00 0.00 86 1017.1
20260505120852 12 243 0.0 1.6 0.00 0.00 0.00 87 1017.1
20260505120331 12 243 0.0 0.0 0.00 0.00 0.00 86 1017.1
20260505115848 12 243 0.0 0.0 0.00 0.00 0.00 86 1017.1
20260505115414 12 243 0.0 0.0 0.00 0.00 0.00 86 1017.1
20260505114850 12 243 0.0 4.8 0.00 0.00 0.00 86 1017.0
20260505114404 12 243 1.6 4.8 0.00 0.00 0.00 86 1017.0
20260505113840 12 250 0.0 0.0 0.00 0.00 0.00 86 1017.0
20260505113401 12 250 0.0 0.0 0.00 0.00 0.00 86 1017.0
20260505112837 12 250 0.0 0.0 0.00 0.00 0.00 86 1016.9
20260505112329 12 252 0.0 0.0 0.00 0.00 0.00 86 1016.9
20260505111855 12 252 0.0 0.0 0.00 0.00 0.00 86 1017.0
20260505111409 12 252 0.0 0.0 0.00 0.00 0.00 86 1016.9
20260505110844 12 250 0.0 0.0 0.00 0.00 0.00 86 1016.9
20260505110341 12 252 0.0 0.0 0.00 0.00 0.00 86 1016.8
20260505101838 12 230 0.0 0.0 0.00 0.00 0.00 86 1016.6
20260505101334 12 230 0.0 0.0 0.00 0.00 0.00 86 1016.5
20260505100845 12 230 0.0 1.6 0.00 0.00 0.00 86 1016.6
20260505100343 12 230 0.0 1.6 0.00 0.00 0.00 86 1016.7
20260505095909 12 256 0.0 1.6 0.00 0.00 0.00 86 1016.6
20260505095344 12 257 0.0 1.6 0.00 0.00 0.00 86 1016.7
20260505094841 12 252 0.0 1.6 0.00 0.00 0.00 86 1016.6
20260505094348 12 266 0.0 6.4 0.00 0.00 0.00 86 1016.6
20260505093844 12 285 1.6 6.4 0.00 0.00 0.00 86 1016.5
20260505093340 12 256 0.0 1.6 0.00 0.00 0.00 86 1016.5
20260505092829 12 241 0.0 1.6 0.00 0.00 0.00 87 1016.5
20260505092352 12 227 0.0 0.0 0.00 0.00 0.00 87 1016.6
20260505091832 12 228 0.0 0.0 0.00 0.00 0.00 87 1016.4
20260505091329 12 228 0.0 0.0 0.00 0.00 0.00 86 1016.4
20260505090844 12 228 0.0 0.0 0.00 0.00 0.00 86 1016.4
20260505090350 12 228 0.0 0.0 0.00 0.00 0.00 86 1016.3
20260505085906 12 255 0.0 1.6 0.00 0.00 0.00 85 1016.2
20260505085341 12 247 0.0 1.6 0.00 0.00 0.00 85 1016.2
20260505084839 12 223 0.0 3.2 0.00 0.00 0.00 85 1016.2
20260505084405 12 224 0.0 3.2 0.00 0.00 0.00 85 1016.3
20260505083836 12 189 0.0 3.2 0.00 0.00 0.00 84 1016.2
20260505083335 12 248 1.6 3.2 0.00 0.00 0.00 85 1016.2
20260505082844 12 258 0.0 3.2 0.00 0.00 0.00 85 1016.2
20260505082350 12 240 0.0 3.2 0.00 0.00 0.00 85 1016.1
20260505081907 12 250 0.0 1.6 0.00 0.00 0.00 84 1016.1
20260505081342 12 226 0.0 1.6 0.00 0.00 0.00 84 1016.2
20260505080910 12 240 0.0 3.2 0.00 0.00 0.00 84 1016.1
20260505080346 12 243 0.0 6.4 0.00 0.00 0.00 84 1016.1
20260505075843 12 279 0.0 6.4 0.00 0.00 0.00 84 1016.1
20260505075341 12 232 0.0 3.2 0.00 0.00 0.00 83 1016.0
20260505074836 13 232 0.0 4.8 0.00 0.00 0.00 83 1016.0
20260505074335 13 218 1.6 4.8 0.00 0.00 0.00 83 1015.9
20260505073832 13 232 0.0 3.2 0.00 0.00 0.00 83 1015.8
20260505073413 13 222 1.6 3.2 0.00 0.00 0.00 83 1015.7
20260505072831 13 235 0.0 3.2 0.00 0.00 0.00 82 1015.6
20260505072347 13 232 0.0 3.2 0.00 0.00 0.00 82 1015.6
20260505071844 13 231 1.6 3.2 0.00 0.00 0.00 82 1015.5
20260505071342 13 245 0.0 4.8 0.00 0.00 0.00 82 1015.4
20260505070846 13 253 0.0 4.8 0.00 0.00 0.00 82 1015.3
20260505070340 13 273 0.0 1.6 0.00 0.00 0.00 82 1015.3
20260505065837 13 283 0.0 1.6 0.00 0.00 0.00 81 1015.3
20260505065353 13 292 0.0 1.6 0.00 0.00 0.00 81 1015.1
20260505064910 13 321 0.0 1.6 0.00 0.00 0.00 81 1015.2
20260505064347 13 335 0.0 4.8 0.00 0.00 0.00 81 1015.1
20260505063844 14 271 0.0 6.4 0.00 0.00 0.00 81 1015.0
20260505063409 14 250 1.6 6.4 0.00 0.00 0.00 80 1015.0
20260505062404 15 259 1.6 4.8 0.00 0.00 0.00 79 1014.9
20260505061837 15 235 1.6 4.8 0.00 0.00 0.00 79 1014.8
20260505061335 15 243 0.0 3.2 0.00 0.00 0.00 79 1014.8
20260505060842 15 221 0.0 3.2 0.00 0.00 0.00 79 1014.7
20260505060340 15 221 1.6 3.2 0.00 0.00 0.00 79 1014.7
20260505055838 15 234 0.0 1.6 0.00 0.00 0.00 78 1014.7
20260505055348 15 234 0.0 3.2 0.00 0.00 0.00 77 1014.6
20260505054854 16 221 0.0 4.8 0.00 0.00 0.00 77 1014.6
20260505054350 16 253 1.6 4.8 0.00 0.00 0.00 76 1014.5
20260505053847 16 232 1.6 4.8 0.00 0.00 0.00 75 1014.5
20260505053343 16 213 1.6 4.8 0.00 0.00 0.00 75 1014.4
20260505052841 16 233 3.2 4.8 0.00 0.00 0.00 75 1014.5
20260505052336 16 232 1.6 6.4 0.00 0.00 0.00 74 1014.4
20260505051834 16 234 1.6 6.4 0.00 0.00 0.00 73 1014.3
20260505051332 17 249 1.6 3.2 0.00 0.00 0.00 73 1014.4
20260505050845 17 161 1.6 4.8 0.00 0.00 0.00 73 1014.3
20260505050342 17 267 1.6 4.8 0.00 0.00 0.00 73 1014.3
20260505041345 18 234 1.6 6.4 0.00 0.00 0.00 72 1013.2
20260505040843 18 241 0.0 3.2 0.00 0.00 0.00 73 1013.1
20260505040359 18 267 0.0 4.8 0.00 0.00 0.00 74 1013.1
20260505035837 18 258 1.6 6.4 0.00 0.00 0.00 74 1013.0
20260505035334 18 271 0.0 6.4 0.00 0.00 0.00 74 1012.9
20260505034847 19 44 0.0 3.2 0.00 0.00 0.00 74 1012.9
20260505034414 19 250 0.0 6.4 0.00 0.00 0.00 74 1012.7
20260505033849 19 262 1.6 6.4 0.00 0.00 0.00 74 1012.6
20260505033345 20 245 0.0 0.0 0.00 0.00 0.00 74 1012.6
20260505032843 20 249 0.0 0.0 0.00 0.00 0.00 73 1012.5
20260505032341 20 238 0.0 0.0 0.00 0.00 0.00 72 1012.4
20260505031900 20 238 0.0 0.0 0.00 0.00 0.00 71 1012.3
20260505031336 20 232 0.0 0.0 0.00 0.00 0.00 72 1012.3
20260505030832 21 233 0.0 0.0 0.00 0.00 0.00 70 1012.3
20260505030415 20 233 0.0 0.0 0.00 0.00 0.00 70 1012.2
20260505025829 21 233 0.0 1.6 0.00 0.00 0.00 71 1012.2
20260505025346 21 232 0.0 1.6 0.00 0.00 0.00 69 1012.1
20260505024842 21 220 0.0 3.2 0.00 0.00 0.00 69 1012.1
20260505024339 21 250 0.0 3.2 0.00 0.00 0.00 68 1012.1
20260505023846 21 237 0.0 0.0 0.00 0.00 0.00 68 1012.1
20260505023343 21 239 0.0 0.0 0.00 0.00 0.00 68 1012.1
20260505022840 21 239 0.0 0.0 0.00 0.00 0.00 68 1012.1
20260505022338 21 226 0.0 0.0 0.00 0.00 0.00 67 1012.1
20260505021830 22 241 0.0 0.0 0.00 0.00 0.00 66 1012.1
20260505021352 22 257 0.0 3.2 0.00 0.00 0.00 66 1012.0
20260505020849 22 240 0.0 3.2 0.00 0.00 0.00 65 1012.1
20260505020346 22 127 0.0 3.2 0.00 0.00 0.00 65 1012.1
20260505015843 22 253 1.6 3.2 0.00 0.00 0.00 64 1012.1
20260505015336 23 246 0.0 3.2 0.00 0.00 0.00 63 1012.1
20260505014833 23 243 0.0 3.2 0.00 0.00 0.00 62 1012.1
20260505014349 23 236 0.0 3.2 0.00 0.00 0.00 62 1012.1
20260505013854 23 263 0.0 3.2 0.00 0.00 0.00 61 1012.2
20260505013330 23 266 0.0 3.2 0.00 0.00 0.00 60 1012.2
20260505012841 24 252 0.0 6.4 0.00 0.00 0.00 60 1012.3
20260505012337 23 196 0.0 6.4 0.00 0.00 0.00 61 1012.3
20260505011903 23 255 0.0 6.4 0.00 0.00 0.00 60 1012.3
20260505011338 23 263 1.6 6.4 0.00 0.00 0.00 62 1012.3
20260505010830 23 279 3.2 6.4 0.00 0.00 0.00 61 1012.3
20260505010356 23 241 1.6 6.4 0.00 0.00 0.00 61 1012.4
20260505005832 23 280 3.2 6.4 0.00 0.00 0.00 61 1012.4
20260505005330 23 236 1.6 6.4 0.00 0.00 0.00 62 1012.4
20260505004846 23 256 3.2 8.0 0.00 0.00 0.00 61 1012.4
20260505004344 23 216 1.6 8.0 0.00 0.00 0.00 61 1012.5
20260505003839 23 304 3.2 4.8 0.00 0.00 0.00 60 1012.5
20260505003337 23 207 0.0 4.8 0.00 0.00 0.00 61 1012.5
20260505002833 23 253 3.2 8.0 0.00 0.00 0.00 62 1012.5
20260505002345 23 276 3.2 8.0 0.00 0.00 0.00 62 1012.6
20260505001844 23 214 3.2 8.0 0.00 0.00 0.00 61 1012.6
20260505001341 23 237 3.2 8.0 0.00 0.00 0.00 61 1012.6
20260505000838 23 203 3.2 8.0 0.00 0.00 0.00 61 1012.6
20260505000330 23 212 3.2 9.7 0.00 0.00 0.00 61 1012.6
20260504235857 23 243 4.8 9.7 0.00 0.00 0.00 60 1012.6
20260504235351 23 240 1.6 9.7 0.00 0.00 0.00 60 1012.6
20260504234849 23 256 4.8 6.4 0.00 0.00 0.00 59 1012.6
20260504234406 23 231 3.2 8.0 0.00 0.00 0.00 60 1012.6
20260504233840 23 221 3.2 9.7 0.00 0.00 0.00 61 1012.7
20260504233406 23 245 1.6 9.7 0.00 0.00 0.00 60 1012.7
20260504232900 23 250 1.6 8.0 0.00 0.00 0.00 59 1012.7
20260504232339 23 119 3.2 8.0 0.00 0.00 0.00 59 1012.9
20260504231835 23 164 1.6 8.0 0.00 0.00 0.00 59 1012.9
20260504231329 23 224 1.6 8.0 0.00 0.00 0.00 61 1013.0
20260504230852 22 245 3.2 8.0 0.00 0.00 0.00 61 1013.0
20260504230409 22 207 3.2 11.3 0.00 0.00 0.00 60 1013.2
20260504225913 22 140 3.2 11.3 0.00 0.00 0.00 61 1013.2
20260504225407 23 297 3.2 8.0 0.00 0.00 0.00 61 1013.3
20260504224844 22 226 1.6 9.7 0.00 0.00 0.00 62 1013.3